N123DC KMYR-KJZI

Flight info

Callsign N123DC
Flight time 0h 38m
Altitude 1500
Route KMYR-VFR-KJZI
Aircraft A109/L-G/C

Departure

Time 2026-04-24 14:41
Airport Myrtle Beach International Airport (KMYR)

Arrival

Time 2026-04-24 15:19
Airport Charleston Executive Airport (KJZI)
Time Latitude Longitude Altitude Speed Heading
2026-04-24 14:40 33.70700 -78.90024 702 ft 129 kts 166°
2026-04-24 14:41 33.69845 -78.90183 690 ft 128 kts 211°
2026-04-24 14:41 33.69144 -78.90893 570 ft 135 kts 231°
2026-04-24 14:41 33.68698 -78.91805 851 ft 120 kts 236°
2026-04-24 14:41 33.68119 -78.92506 1036 ft 121 kts 222°
2026-04-24 14:42 33.67497 -78.93183 1221 ft 119 kts 222°
2026-04-24 14:42 33.66888 -78.93853 1438 ft 119 kts 222°
2026-04-24 14:42 33.66250 -78.94560 1422 ft 135 kts 222°
2026-04-24 14:42 33.65562 -78.95364 1421 ft 140 kts 224°
2026-04-24 14:43 33.64849 -78.96191 1404 ft 143 kts 223°
2026-04-24 14:43 33.64128 -78.97020 1437 ft 141 kts 224°
2026-04-24 14:43 33.63433 -78.97808 1577 ft 135 kts 223°
2026-04-24 14:43 33.62758 -78.98573 1709 ft 132 kts 223°
2026-04-24 14:44 33.62096 -78.99327 1846 ft 130 kts 223°
2026-04-24 14:44 33.61447 -79.00070 1994 ft 128 kts 223°
2026-04-24 14:44 33.60805 -79.00807 2118 ft 127 kts 223°
2026-04-24 14:44 33.60169 -79.01539 2261 ft 126 kts 223°
2026-04-24 14:45 33.59535 -79.02267 2418 ft 126 kts 223°
2026-04-24 14:45 33.58912 -79.02955 2352 ft 120 kts 221°
2026-04-24 14:45 33.58322 -79.03603 2222 ft 111 kts 222°
2026-04-24 14:45 33.57775 -79.04208 2105 ft 104 kts 222°
2026-04-24 14:46 33.57261 -79.04777 1880 ft 97 kts 222°
2026-04-24 14:46 33.56742 -79.05351 1528 ft 106 kts 223°
2026-04-24 14:46 33.56245 -79.05895 1464 ft 83 kts 224°
2026-04-24 14:46 33.55735 -79.06265 1211 ft 93 kts 206°
2026-04-24 14:47 33.55127 -79.06667 1222 ft 109 kts 214°
2026-04-24 14:47 33.54438 -79.07230 919 ft 142 kts 217°
2026-04-24 14:47 33.53635 -79.08076 726 ft 156 kts 225°
2026-04-24 14:47 33.52928 -79.08993 947 ft 146 kts 228°
2026-04-24 14:48 33.52270 -79.09890 1148 ft 140 kts 228°
2026-04-24 14:48 33.51633 -79.10744 1327 ft 135 kts 228°
2026-04-24 14:48 33.51025 -79.11569 1506 ft 131 kts 228°
2026-04-24 14:48 33.50397 -79.12406 1456 ft 137 kts 227°
2026-04-24 14:49 33.49758 -79.13259 1419 ft 138 kts 227°
2026-04-24 14:49 33.49124 -79.14111 1405 ft 136 kts 227°
2026-04-24 14:49 33.48507 -79.14941 1390 ft 134 kts 228°
2026-04-24 14:49 33.47891 -79.15769 1388 ft 132 kts 228°
2026-04-24 14:50 33.47279 -79.16592 1391 ft 132 kts 228°
2026-04-24 14:50 33.46666 -79.17418 1387 ft 132 kts 228°
2026-04-24 14:50 33.46052 -79.18246 1390 ft 133 kts 228°
2026-04-24 14:50 33.45438 -79.19073 1390 ft 133 kts 228°
2026-04-24 14:51 33.44822 -79.19903 1390 ft 134 kts 228°
2026-04-24 14:51 33.44205 -79.20731 1385 ft 133 kts 228°
2026-04-24 14:51 33.43590 -79.21558 1388 ft 133 kts 228°
2026-04-24 14:51 33.42976 -79.22385 1386 ft 132 kts 228°
2026-04-24 14:52 33.42362 -79.23215 1395 ft 134 kts 228°
2026-04-24 14:52 33.41741 -79.24052 1385 ft 134 kts 228°
2026-04-24 14:52 33.41093 -79.24836 1389 ft 134 kts 222°
2026-04-24 14:52 33.40395 -79.25582 1351 ft 135 kts 222°
2026-04-24 14:53 33.39695 -79.26337 1315 ft 135 kts 222°
2026-04-24 14:53 33.38998 -79.27093 1305 ft 135 kts 222°
2026-04-24 14:53 33.38303 -79.27851 1312 ft 135 kts 222°
2026-04-24 14:53 33.37608 -79.28610 1287 ft 136 kts 222°
2026-04-24 14:54 33.36907 -79.29369 1302 ft 136 kts 222°
2026-04-24 14:54 33.36203 -79.30127 1325 ft 136 kts 222°
2026-04-24 14:54 33.35502 -79.30885 1315 ft 136 kts 222°
2026-04-24 14:54 33.34803 -79.31645 1272 ft 136 kts 222°
2026-04-24 14:55 33.34339 -79.32149 1249 ft 136 kts 222°
2026-04-24 14:55 33.33401 -79.33166 1202 ft 136 kts 222°
2026-04-24 14:55 33.32700 -79.33925 1159 ft 136 kts 222°
2026-04-24 14:55 33.31999 -79.34686 1117 ft 136 kts 222°
2026-04-24 14:56 33.31265 -79.35383 1090 ft 135 kts 214°
2026-04-24 14:56 33.30466 -79.36001 966 ft 141 kts 212°
2026-04-24 14:56 33.29621 -79.36645 813 ft 147 kts 212°
2026-04-24 14:56 33.28771 -79.37301 827 ft 146 kts 213°
2026-04-24 14:57 33.27917 -79.37960 949 ft 142 kts 213°
2026-04-24 14:57 33.27104 -79.38590 1161 ft 132 kts 213°
2026-04-24 14:57 33.26373 -79.39152 1432 ft 123 kts 212°
2026-04-24 14:57 33.25623 -79.39727 1425 ft 135 kts 212°
2026-04-24 14:58 33.24820 -79.40335 1411 ft 137 kts 212°
2026-04-24 14:58 33.24011 -79.40948 1420 ft 138 kts 212°
2026-04-24 14:58 33.23201 -79.41560 1423 ft 138 kts 212°
2026-04-24 14:58 33.22391 -79.42175 1427 ft 138 kts 212°
2026-04-24 14:59 33.21581 -79.42789 1428 ft 138 kts 212°
2026-04-24 14:59 33.20770 -79.43404 1429 ft 138 kts 212°
2026-04-24 14:59 33.19956 -79.44016 1428 ft 138 kts 212°
2026-04-24 14:59 33.19141 -79.44630 1429 ft 138 kts 212°
2026-04-24 15:00 33.18328 -79.45244 1429 ft 138 kts 212°
2026-04-24 15:00 33.17516 -79.45861 1429 ft 138 kts 212°
2026-04-24 15:00 33.16702 -79.46476 1429 ft 139 kts 212°
2026-04-24 15:00 33.15888 -79.47091 1429 ft 139 kts 212°
2026-04-24 15:01 33.15080 -79.47699 1428 ft 138 kts 212°
2026-04-24 15:01 33.14271 -79.48310 1428 ft 137 kts 212°
2026-04-24 15:01 33.13462 -79.48919 1429 ft 137 kts 212°
2026-04-24 15:01 33.12652 -79.49530 1430 ft 138 kts 212°
2026-04-24 15:02 33.11839 -79.50144 1429 ft 138 kts 212°
2026-04-24 15:02 33.11025 -79.50759 1428 ft 138 kts 212°
2026-04-24 15:02 33.10214 -79.51371 1430 ft 138 kts 212°
2026-04-24 15:02 33.09401 -79.51985 1429 ft 139 kts 212°
2026-04-24 15:03 33.08861 -79.52393 1429 ft 139 kts 212°
2026-04-24 15:03 33.07770 -79.53218 1428 ft 138 kts 212°
2026-04-24 15:03 33.06959 -79.53831 1428 ft 138 kts 212°
2026-04-24 15:03 33.06148 -79.54442 1428 ft 137 kts 212°
2026-04-24 15:04 33.05337 -79.55054 1436 ft 140 kts 212°
2026-04-24 15:04 33.04512 -79.55677 1427 ft 140 kts 212°
2026-04-24 15:04 33.03688 -79.56301 1429 ft 140 kts 212°
2026-04-24 15:04 33.02876 -79.56915 1427 ft 140 kts 212°
2026-04-24 15:05 33.02055 -79.57533 1431 ft 140 kts 212°
2026-04-24 15:05 33.01229 -79.58156 1427 ft 140 kts 212°
2026-04-24 15:05 33.00406 -79.58778 1427 ft 139 kts 212°
2026-04-24 15:05 32.99589 -79.59394 1428 ft 139 kts 212°
2026-04-24 15:06 32.98774 -79.60009 1430 ft 139 kts 212°
2026-04-24 15:06 32.97957 -79.60626 1430 ft 139 kts 212°
2026-04-24 15:06 32.97139 -79.61243 1428 ft 139 kts 212°
2026-04-24 15:06 32.96324 -79.61858 1429 ft 139 kts 212°
2026-04-24 15:07 32.95518 -79.62466 1429 ft 139 kts 212°
2026-04-24 15:07 32.94700 -79.63084 1429 ft 139 kts 212°
2026-04-24 15:07 32.93882 -79.63702 1428 ft 139 kts 212°
2026-04-24 15:07 32.93067 -79.64316 1428 ft 138 kts 212°
2026-04-24 15:08 32.92257 -79.64927 1430 ft 138 kts 212°
2026-04-24 15:08 32.91445 -79.65539 1429 ft 138 kts 212°
2026-04-24 15:08 32.90631 -79.66156 1430 ft 139 kts 212°
2026-04-24 15:08 32.89817 -79.66771 1428 ft 139 kts 212°
2026-04-24 15:09 32.89276 -79.67181 1429 ft 139 kts 212°
2026-04-24 15:09 32.88483 -79.67840 1431 ft 138 kts 220°
2026-04-24 15:09 32.87723 -79.68533 1461 ft 138 kts 217°
2026-04-24 15:09 32.86957 -79.69218 1456 ft 138 kts 217°
2026-04-24 15:10 32.86190 -79.69904 1457 ft 138 kts 217°
2026-04-24 15:10 32.85176 -79.70807 1459 ft 138 kts 217°
2026-04-24 15:10 32.84657 -79.71269 1459 ft 138 kts 217°
2026-04-24 15:10 32.83891 -79.71952 1460 ft 138 kts 217°
2026-04-24 15:11 32.83121 -79.72639 1458 ft 138 kts 217°
2026-04-24 15:11 32.82348 -79.73329 1461 ft 140 kts 217°
2026-04-24 15:11 32.81570 -79.74028 1455 ft 141 kts 219°
2026-04-24 15:11 32.80899 -79.74853 1429 ft 141 kts 232°
2026-04-24 15:12 32.80334 -79.75803 1417 ft 140 kts 234°
2026-04-24 15:12 32.79219 -79.77675 1418 ft 137 kts 234°
2026-04-24 15:12 32.78661 -79.78605 1423 ft 139 kts 234°
2026-04-24 15:13 32.78096 -79.79548 1421 ft 141 kts 234°
2026-04-24 15:13 32.77525 -79.80500 1419 ft 142 kts 234°
2026-04-24 15:13 32.76957 -79.81451 1416 ft 141 kts 234°
2026-04-24 15:13 32.76390 -79.82396 1418 ft 140 kts 234°
2026-04-24 15:14 32.75826 -79.83337 1419 ft 139 kts 234°
2026-04-24 15:14 32.75263 -79.84276 1419 ft 140 kts 234°
2026-04-24 15:14 32.74703 -79.85213 1417 ft 138 kts 234°
2026-04-24 15:14 32.74147 -79.86144 1420 ft 138 kts 234°
2026-04-24 15:15 32.73587 -79.87083 1422 ft 140 kts 234°
2026-04-24 15:15 32.73022 -79.87997 1374 ft 132 kts 231°
2026-04-24 15:15 32.72858 -79.88238 1341 ft 129 kts 230°
2026-04-24 15:15 32.72290 -79.89016 1214 ft 124 kts 227°
2026-04-24 15:16 32.71727 -79.89718 1178 ft 113 kts 225°
2026-04-24 15:16 32.71200 -79.90335 1231 ft 99 kts 228°
2026-04-24 15:16 32.70850 -79.90990 1258 ft 93 kts 246°
2026-04-24 15:16 32.70663 -79.91728 1214 ft 95 kts 257°
2026-04-24 15:17 32.70578 -79.92511 1168 ft 97 kts 266°
2026-04-24 15:17 32.70581 -79.93321 1111 ft 99 kts 269°
2026-04-24 15:17 32.70610 -79.94126 977 ft 96 kts 271°
2026-04-24 15:17 32.70656 -79.94915 771 ft 95 kts 272°
2026-04-24 15:18 32.70671 -79.95713 719 ft 99 kts 267°
2026-04-24 15:18 32.70622 -79.96544 648 ft 100 kts 263°
2026-04-24 15:18 32.70558 -79.97319 569 ft 89 kts 263°
2026-04-24 15:18 32.70522 -79.98029 403 ft 84 kts 268°
2026-04-24 15:19 32.70517 -79.98670 238 ft 71 kts 267°
2026-04-24 15:19 32.70514 -79.99226 131 ft 65 kts 269°
2026-04-24 15:19 32.70510 -79.99749 49 ft 59 kts 265°
2026-04-24 15:19 32.70503 -80.00049 32 ft 18 kts 270°
2026-04-24 15:20 32.70502 -80.00219 29 ft 24 kts 269°
2026-04-24 15:20 32.70501 -80.00401 27 ft 20 kts 270°
2026-04-24 15:20 32.70498 -80.00547 24 ft 16 kts 269°
2026-04-24 15:20 32.70492 -80.00654 21 ft 11 kts 249°
2026-04-24 15:21 32.70434 -80.00689 20 ft 9 kts 183°
2026-04-24 15:21 32.70384 -80.00692 22 ft 7 kts 182°
2026-04-24 15:21 32.70335 -80.00695 23 ft 7 kts 183°
2026-04-24 15:21 32.70269 -80.00698 24 ft 13 kts 177°
2026-04-24 15:22 32.70186 -80.00693 25 ft 11 kts 178°
2026-04-24 15:22 32.70115 -80.00690 23 ft 9 kts 178°
2026-04-24 15:22 32.70053 -80.00688 23 ft 10 kts 179°
2026-04-24 15:23 32.69931 -80.00687 23 ft 7 kts 193°
2026-04-24 15:23 32.69884 -80.00776 21 ft 6 kts 225°
2026-04-24 15:23 32.69856 -80.00799 21 ft 4 kts 212°
2026-04-24 15:24 32.69839 -80.00811 23 ft 0 kts 211°